Weather past 2 weeks in Saipan, Northern Mariana Islands

Now
86 °F

Mostly cloudy.


Feels Like: 95 °F
Forecast: 76 / 83 °F
Wind: 10 mph from Southeast

Location: Saipan International Airport

Current Time: May 6, 2015 at 1:23:20 PM

Latest Report: May 6, 2015 at 1:01 PM


Visibility: 10 mi

Pressure: 29.82 "Hg

Humidity: 70%

Dew point: 75 °F

Location of SaipanLocation

Historic Weather in Saipan — Graph

°F

Saipan temperature yesterday

Maximum temperature yesterday: 85 °F (at 11:54 AM)
Minimum temperature yesterday: 79 °F (at 1:14 PM)
Average temperature yesterday: 81 °F

Past Weeks' High & Low Weather Summary

 TemperatureHumidityPressure
High87 °F (Apr 22, 11:54 AM)100% (Apr 27, 7:01 PM)30.03 "Hg (Apr 27, 7:01 PM)
Low73 °F (May 1, 3:54 AM)63% (Apr 22, 11:54 AM)29.78 "Hg (May 5, 3:01 PM)
Average81 °F82%29.92 "Hg
* Reported Apr 21 11:54 AM — May 6 11:54 AM, Saipan, Weather by CustomWeather, © 2015

Note: Actual official high and low records may vary slightly from our data, if they occured in-between our weather recording intervals... More about our weather records

Advertising

Saipan weather history for previous 24 hours

 ConditionsComfort  
Time TempWeatherWind HumidityBarometerVisibility
11:54 AM
Wed, May 6
87 °FPassing clouds.8 mph67%29.90 "Hg10 mi
10:54 AM86 °FPassing clouds.10 mph70%29.92 "Hg10 mi
9:54 AM85 °FSunny.9 mph70%29.93 "Hg10 mi
8:54 AM84 °FScattered clouds.10 mph74%29.93 "Hg10 mi
7:54 AM82 °FPassing clouds.7 mph79%29.91 "Hg10 mi
6:54 AM81 °FScattered clouds.8 mph79%29.89 "Hg10 mi
5:54 AM79 °FPassing clouds.5 mph84%29.87 "Hg10 mi
4:54 AM79 °FPartly cloudy.5 mph84%29.87 "Hg10 mi
3:54 AM80 °FPartly cloudy.5 mph85%29.85 "Hg10 mi
2:54 AM79 °FPassing clouds.5 mph84%29.86 "Hg10 mi
1:54 AM80 °FPassing clouds.6 mph85%29.88 "Hg10 mi
12:54 AM79 °FPassing clouds.6 mph88%29.88 "Hg10 mi
11:54 PM
Tue, May 5
79 °FPassing clouds.6 mph88%29.90 "Hg10 mi
11:10 PM79 °FPassing clouds.5 mph89%29.85 "Hg10 mi
11:01 PM79 °FPartly cloudy.5 mph89%29.85 "Hg10 mi
10:43 PM79 °FPassing clouds.6 mph94%29.85 "Hg10 mi
10:29 PM79 °FLight rain. Overcast.8 mph89%29.84 "Hg8 mi
9:54 PM80 °FPassing clouds.6 mph87%29.90 "Hg10 mi
8:54 PM80 °FPassing clouds.5 mph85%29.88 "Hg10 mi
7:54 PM80 °FPassing clouds.5 mph87%29.86 "Hg10 mi
6:54 PM81 °FPassing clouds.5 mph82%29.85 "Hg10 mi
5:54 PM82 °FLight rain. Sunny.6 mph82%29.84 "Hg10 mi
4:54 PM82 °FLight rain. Scattered clouds.8 mph82%29.83 "Hg10 mi
3:54 PM83 °FScattered clouds.8 mph85%29.83 "Hg10 mi
3:12 PM84 °FPassing clouds.7 mph79%29.78 "Hg10 mi
3:01 PM84 °FPartly sunny.6 mph79%29.78 "Hg10 mi
1:54 PM83 °FBroken clouds.13 mph88%29.85 "Hg10 mi
1:14 PM79 °FRain. Fog.7 mph94%29.80 "Hg2 mi
Weather by CustomWeather, © 2015

See weather overviewHow to use our weather pages